Farmington, MO

5:19 AM CDT on October 16, 2019 (GMT -0500)
Farmington Regional

Weather History for KFAM - September, 2019

Change the Weather History Date:

Wednesday, September 18, 2019

  Actual Average Record
Temperature  
Mean Temperature 78 °F -  
Max Temperature 93 °F 75 °F 93 °F (2019)
Min Temperature 64 °F 53 °F 44 °F (1999)
Cooling Degree Days 14    
Growing Degree Days 28 (Base 50)    
Moisture  
Dew Point 67 °F    
Average Humidity 81    
Maximum Humidity 100    
Minimum Humidity 42    
Precipitation  
Precipitation 0.00 in - - ()
Sea Level Pressure  
Sea Level Pressure 30.06 in    
Wind  
Wind Speed 1 mph (ESE)    
Max Wind Speed 9 mph    
Max Gust Speed -    
Visibility 8 miles    
Events      
Averages and records for this station are not official NWS values.
T = Trace of Precipitation, MM = Missing Value Source: NWS Daily Summary

Daily Weather History Graph

Daily Weather History Graph

Search for Another Location

Airport or City:

Astronomy

Sep. 18, 2019 Rise Set
Actual Time 6:45 AM CDT 7:05 PM CDT
Civil Twilight 6:19 AM CDT 7:31 PM CDT
Nautical Twilight 5:48 AM CDT 8:02 PM CDT
Astronomical Twilight 5:17 AM CDT 8:33 PM CDT
Moon 9:43 PM CDT (9/18) 10:45 AM CDT (9/18)
Length of Visible Light 13h 11m
Length of Day
12h 19m
Waning Gibbous, 82% of the Moon is Illuminated
Sep 18
Waning Gibbous
Sep 21
Last Quarter
Sep 28
New
Oct 5
First Quarter
Oct 13
Full

Hourly Weather History & Observations

Time (CDT) Temp. Heat Index Dew Point Humidity Pressure Visibility Wind Dir Wind Speed Gust Speed Precip Events Conditions
12:56 AM 68.0 °F - 68.0 °F 100% 30.07 in 10.0 mi Calm Calm - N/A   Clear
1:56 AM 68.0 °F - 68.0 °F 100% 30.08 in 5.0 mi Calm Calm - N/A   Clear
2:56 AM 66.9 °F - 66.9 °F 100% 30.06 in 7.0 mi Calm Calm - N/A   Clear
3:56 AM 66.9 °F - 66.9 °F 100% 30.06 in 8.0 mi Calm Calm - N/A   Clear
4:56 AM 66.0 °F - 66.0 °F 100% 30.06 in 9.0 mi Calm Calm - N/A   Clear
5:02 AM 66.2 °F - 66.2 °F 100% 30.06 in 1.2 mi Calm Calm - N/A   Clear
5:18 AM 66.2 °F - 66.2 °F 100% 30.06 in 7.0 mi Calm Calm - N/A   Clear
5:56 AM 66.0 °F - 66.0 °F 100% 30.07 in 6.0 mi Calm Calm - N/A   Clear
6:32 AM 64.4 °F - 64.4 °F 100% 30.06 in 1.8 mi Calm Calm - N/A   Clear
6:35 AM 64.4 °F - 64.4 °F 100% 30.06 in 0.8 mi Calm Calm - N/A   Clear
6:44 AM 64.4 °F - 64.4 °F 100% 30.06 in 1.5 mi Calm Calm - N/A   Clear
6:51 AM 64.4 °F - 64.4 °F 100% 30.07 in 9.0 mi Calm Calm - N/A   Clear
6:56 AM 64.9 °F - 64.9 °F 100% 30.08 in 10.0 mi Calm Calm - N/A   Clear
7:56 AM 68.0 °F - 66.9 °F 96% 30.09 in 9.0 mi Calm Calm - N/A   Clear
8:56 AM 73.0 °F - 66.9 °F 81% 30.09 in 10.0 mi Calm Calm - N/A   Clear
9:56 AM 79.0 °F - 68.0 °F 69% 30.09 in 10.0 mi South 5.8 mph - N/A   Clear
10:56 AM 82.9 °F 85.8 °F 68.0 °F 60% 30.09 in 10.0 mi SSE 4.6 mph - N/A   Clear
12:56 PM 89.1 °F 92.9 °F 68.0 °F 50% 30.08 in 10.0 mi Variable 4.6 mph - N/A   Clear
1:56 PM 91.9 °F 94.5 °F 66.0 °F 42% 30.07 in 10.0 mi NNE 6.9 mph - N/A   Clear
2:56 PM 93.0 °F 97.9 °F 69.1 °F 45% 30.05 in 10.0 mi East 8.1 mph - N/A   Scattered Clouds
3:56 PM 91.0 °F 93.8 °F 66.0 °F 44% 30.03 in 10.0 mi SE 9.2 mph - N/A   Mostly Cloudy
4:56 PM 90.0 °F 92.8 °F 66.9 °F 46% 30.03 in 10.0 mi East 8.1 mph - N/A   Clear
5:56 PM 89.1 °F 91.3 °F 66.0 °F 46% 30.02 in 10.0 mi East 6.9 mph - N/A   Clear
6:56 PM 82.9 °F 85.4 °F 66.9 °F 58% 30.04 in 10.0 mi East 4.6 mph - N/A   Clear
7:56 PM 78.1 °F - 66.9 °F 68% 30.05 in 10.0 mi Calm Calm - N/A   Clear
8:56 PM 75.9 °F - 68.0 °F 76% 30.06 in 10.0 mi Calm Calm - N/A   Clear
9:56 PM 72.0 °F - 66.9 °F 84% 30.06 in 10.0 mi Calm Calm - N/A   Clear
10:56 PM 71.1 °F - 68.0 °F 90% 30.06 in 10.0 mi Calm Calm - N/A   Clear
11:56 PM 68.0 °F - 66.9 °F 96% 30.05 in 10.0 mi Calm Calm - N/A   Clear